User: anonymous   Login
Location: Unspecified
(0.0000°N, 0.0000°E)
Time: 20:47:47
(UTC+00:00)
Language:

STPSAT 2 (USA 217) - Orbit

View from above orbital plane
View from above orbital plane
View from above satellite
View from above satellite

Ground track
Ground track

The orbit data is extracted from the following two-line orbital elements,

1 37222U 10062A   17113.80873823 0.00000130  00000-0  17836-4 0    03
2 37222  71.9591   1.2773 0016284 269.4756  90.5244 14.78275419    02
Epoch (UTC): 23 April 2017 19:24:34
Eccentricity: 0.0016284
inclination: 71.9591°
perigee height: 623 km
apogee height: 646 km
right ascension of ascending node: 1.2773°
argument of perigee: 269.4756°
revolutions per day: 14.78275419
mean anomaly at epoch: 90.5244°
orbit number at epoch: 0

The dashed part of the orbit path shows where the satellite is in the earth's shadow,  

DLR